Flag for U.S.A. Weather past 2 weeks in Birmingham, Alabama, U.S.A.

Now
80 °F

Passing clouds.


Feels Like: 83 °F
Forecast: 74 / 91 °F
Wind: 9 mph from East

Location: Birmingham International Airport

Current Time: Sep 5, 2015 at 9:22:57 AM

Latest Report: Sep 5, 2015 at 8:53 AM


Visibility: 8 mi

Pressure: 30.07 "Hg

Humidity: 71%

Dew point: 70 °F

Location of BirminghamLocation

Historic Weather in Birmingham — Graph

°F

Birmingham temperature yesterday

Maximum temperature yesterday: 91 °F (at 1:53 PM)
Minimum temperature yesterday: 72 °F (at 4:53 AM)
Average temperature yesterday: 81 °F

Past Weeks' High & Low Weather Summary

 TemperatureHumidityPressure
High91 °F (Sep 3, 2:53 PM)100% (Aug 22, 9:53 PM)30.18 "Hg (Aug 22, 9:53 PM)
Low58 °F (Aug 26, 6:53 AM)38% (Aug 25, 3:53 PM)29.93 "Hg (Sep 3, 3:53 PM)
Average77 °F78%30.04 "Hg
* Reported Aug 21 7:00 AM — Sep 5 7:53 AM, Birmingham, Weather by CustomWeather, © 2015

Note: Actual official high and low records may vary slightly from our data, if they occured in-between our weather recording intervals... More about our weather records

Advertising

Birmingham weather history for previous 24 hours

 ConditionsComfort  
Time TempWeatherWind HumidityBarometerVisibility
7:53 AM
Sat, Sep 5
79 °FPassing clouds.5 mph74%30.06 "Hg8 mi
6:53 AM77 °FClear.6 mph77%30.05 "Hg8 mi
5:53 AM77 °FClear.5 mph74%30.03 "Hg9 mi
4:53 AM78 °FClear.6 mph74%30.01 "Hg9 mi
3:53 AM74 °FClear.3 mph88%29.99 "Hg8 mi
2:53 AM77 °FClear.No wind77%29.99 "Hg9 mi
1:53 AM75 °FClear.No wind90%30.00 "Hg7 mi
12:53 AM77 °FClear.No wind85%30.00 "Hg8 mi
11:53 PM
Fri, Sep 4
78 °FClear.No wind82%30.01 "Hg9 mi
10:53 PM78 °FClear.3 mph84%30.01 "Hg9 mi
9:53 PM79 °FPassing clouds.No wind84%30.02 "Hg9 mi
8:53 PM80 °FPassing clouds.3 mph79%30.00 "Hg10 mi
7:53 PM82 °FPartly sunny.3 mph74%29.98 "Hg10 mi
6:53 PM85 °FPartly sunny.3 mph70%29.97 "Hg10 mi
5:53 PM88 °FBroken clouds.6 mph59%29.96 "Hg10 mi
4:53 PM91 °FPartly sunny.5 mph50%29.96 "Hg10 mi
3:53 PM91 °FScattered clouds.3 mph50%29.96 "Hg10 mi
2:53 PM90 °FPartly sunny.7 mph50%29.98 "Hg10 mi
1:53 PM91 °FScattered clouds.6 mph50%30.00 "Hg10 mi
12:53 PM90 °FPassing clouds.6 mph50%30.01 "Hg10 mi
11:53 AM88 °FPassing clouds.3 mph57%30.02 "Hg10 mi
10:53 AM86 °FSunny.6 mph61%30.03 "Hg10 mi
9:53 AM84 °FSunny.3 mph70%30.03 "Hg9 mi
Weather by CustomWeather, © 2015

See weather overviewHow to use our weather pages